Home   Weather   Washington DC   Past weeks

Flag for USA Past Weather in Washington DC, USA — Yesterday and Last 2 Weeks

Now
49 °F

Passing clouds.


Feels Like: 46 °F
Forecast: 45 / 64 °F
Wind: 7 mph from Southeast

Location: Reagan National Airport

Current Time: Feb 21, 2017 at 8:51:27 pm

Latest Report: Feb 21, 2017 at 7:52 pm


Visibility: 10 mi

Pressure: 30.17 "Hg

Humidity: 66%

Dew Point: 38 °F

Location of Washington DCLocation

Past Weather in Washington DC — Graph

°F

Washington DC Temperature Yesterday

Maximum temperature yesterday: 68 °F (at 3:52 pm)
Minimum temperature yesterday: 44 °F (at 5:52 am)
Average temperature yesterday: 56 °F

High & Low Weather Summary for the Past Weeks

 TemperatureHumidityPressure
High73 °F (Feb 8, 11:52 am)93% (Feb 9, 4:14 am)30.44 "Hg (Feb 9, 4:14 am)
Low24 °F (Feb 10, 1:52 am)24% (Feb 20, 3:52 pm)29.45 "Hg (Feb 15, 12:52 pm)
Average46 °F54%29.92 "Hg
* Reported Feb 6 6:52 pm — Feb 21 6:52 pm, Washington DC, Weather by CustomWeather, © 2017

Note: Actual official high and low records may vary slightly from our data, if they occured in-between our weather recording intervals... More about our weather records

Advertising

Washington DC Weather History for the Previous 24 Hours

Scroll right to see more
 ConditionsComfort  
Time TempWeatherWind HumidityBarometerVisibility
6:52 pm
Tue, Feb 21
51 °FOvercast.6 mph56%30.17 "Hg10 mi
5:52 pm53 °FOvercast.7 mph51%30.16 "Hg10 mi
4:52 pm55 °FOvercast.12 mph45%30.17 "Hg10 mi
3:52 pm55 °FPartly sunny.9 mph44%30.18 "Hg10 mi
2:52 pm57 °FOvercast.12 mph39%30.20 "Hg10 mi
1:52 pm56 °FOvercast.8 mph37%30.22 "Hg10 mi
12:52 pm55 °FOvercast.10 mph37%30.26 "Hg10 mi
11:52 am53 °FOvercast.8 mph41%30.30 "Hg10 mi
10:52 am50 °FOvercast.8 mph46%30.32 "Hg10 mi
9:52 am47 °FOvercast.3 mph50%30.36 "Hg10 mi
8:52 am44 °FOvercast.5 mph53%30.36 "Hg10 mi
7:52 am42 °FPartly sunny.7 mph55%30.35 "Hg10 mi
6:52 am41 °FBroken clouds.6 mph58%30.35 "Hg10 mi
5:52 am42 °FPassing clouds.6 mph51%30.35 "Hg10 mi
4:52 am43 °FMostly cloudy.No wind47%30.35 "Hg10 mi
3:52 am45 °FMostly cloudy.6 mph45%30.34 "Hg10 mi
2:52 am46 °FPassing clouds.8 mph38%30.33 "Hg10 mi
1:52 am48 °FPassing clouds.8 mph39%30.32 "Hg10 mi
12:52 am50 °FPassing clouds.5 mph38%30.32 "Hg10 mi
11:52 pm
Mon, Feb 20
49 °FPassing clouds.No wind46%30.32 "Hg10 mi
10:52 pm50 °FPassing clouds.8 mph46%30.30 "Hg10 mi
9:52 pm50 °FPassing clouds.7 mph46%30.29 "Hg10 mi
8:52 pm53 °FPassing clouds.No wind47%30.28 "Hg10 mi
Weather by CustomWeather, © 2017

See weather overviewHow to use our weather pages